Location: Six Mile Lake
(44.9000°N, 79.7170°W)
Time: 18:21:22
(UTC-04:00)

UKube-1 - Pass Details

Date: 04 July 2022
Orbit: 608 x 615 km, 98.4° (Epoch: 18 August)

Event Time Altitude Azimuth Distance (km) Brightness Sun altitude
Rises 23:43:42 0° 9° (N) 2,894 ? -18.6°
Reaches altitude 10° 23:45:55 10° 6° (N) 1,983 ? -18.7°
Maximum altitude 23:50:08 56° 288° (WNW) 729 ? -19.0°
Enters shadow 23:52:36 23° 218° (SW) 1,305 ? -19.2°
